Weather Roundup
Issued by NWS Corpus Christi, TX

Home | Current Version | Previous Version | Text Only | Print | Product List | Glossary On
Versions: 1 2 3 4 5 6 7 8 9 10 11 12 13 14 15 16 17 18 19 20 21 22 23 24 25 26 27 28 29 30 31 32 33 34 35 36 37 38 39 40 41 42 43 44 45 46 47 48 49 50
000
ASUS44 KCRP 161710
HRRCRP

SOUTH TEXAS REGIONAL WEATHER ROUNDUP
NATIONAL WEATHER SERVICE CORPUS CHRISTI TX
1100 AM CST TUE JAN 16 2018


TXZ229>244-161800-
...CORPUS CHRISTI AREA OBSERVATIONS...

CITY           SKY/WX    TMP DP  RH WIND       PRES   REMARKS
CORPUS CHRISTI DRIZZLE   32  31  96 N23G30    30.63R FOG     WCI  19
NAS CORPUS CHR DRIZZLE   36  33  89 N32G40    30.60S FOG     WCI  23
ROCKPORT       LGT SNOW  31  28  89 N26G35    30.63R FOG     WCI  17
KINGSVILLE ARP CLOUDY    34  32  92 N18G25    30.65R WCI  23
KINGSVILLE NAS CLOUDY    33  31  92 N17G28    30.64R FOG     WCI  22
ALICE          CLOUDY    32  25  75 N23G32    30.65R WCI  19
$$

...VICTORIA AREA OBSERVATIONS...

CITY           SKY/WX    TMP DP  RH WIND       PRES   REMARKS
PORT LAVACA    CLOUDY    30  27  91 N24G32    30.64R FOG     WCI  16
VICTORIA       CLOUDY    29  25  85 N22G29    30.66R WCI  15
BEEVILLE       CLOUDY    30  23  75 N17G26    30.66R WCI  18
PLEASANTON     CLOUDY    30  20  67 N10G22    30.72R WCI  21
SAN ANTONIO    CLOUDY    26  14  60 N15G33    30.69R WCI  14
$$

...LAREDO AREA OBSERVATIONS...

CITY           SKY/WX    TMP DP  RH WIND       PRES   REMARKS
LAREDO         MIX PCPN  33  30  88 N26G33    30.70S WCI  20
COTULLA        CLOUDY    31  25  78 N12       30.73R WCI  22
DEL RIO        CLOUDY    33   4  29 N15       30.76R WCI  23
MCALLEN        NOT AVBL
HEBBRONVILLE   LGT RAIN  31  30  94 N16G26    30.66R WCI  20
$$

...OTHER TEXAS OBSERVATIONS...

CITY           SKY/WX    TMP DP  RH WIND       PRES   REMARKS
BROWNSVILLE    NOT AVBL
HOUSTON        FRZ RAIN  28  25  88 N20G28    30.66S WCI  15
COL. STATION   CLOUDY    25  16  68 N17       30.74R WCI  12
AUSTIN         LGTSLEET  26  17  68 N24G31    30.73S WCI  11
WACO           CLOUDY    23   5  46 N22G29    30.81R WCI   8
FORT WORTH     MOSUNNY   23   4  44 N15       30.81F WCI  10
WICHITA FALLS  MOSUNNY   17  -3  41 N17G25    30.85F WCI   1
LUBBOCK        PTSUNNY   21  -8  27 N10       30.69S WCI  10
EL PASO        PTSUNNY   32   3  29 SE10      30.55R WCI  24
$$

...MARINE OBSERVATIONS...

STATION/POSITION TIME  SKY/WX   TEMP    WIND        PRES    VSBY  WAVE   SWELL
                                AIR SEA DIR/SP/G                  HT/PER HT/PER
                 (UTC)          (F)     (DEG/KT/KT) (MB)    (MI)  (FT/S) (FT/S)
PORT ARANSAS     NOT AVBL
BUOY 90 E PORT A 1550            49 71   10/ 27/ 33 1031.7         10/ 7
BUOY 200 E PT IS 1550            69 73  150/  6/  8 1027.9          2/ 6   2/ 6
BUOY 15 E GALVES 1550            38 53  360/ 29/ 35 1034.0          7/ 5
$$




USA.gov is the U.S. government's official web portal to all federal, state and local government web resources and services.